| time (UTC) | temp F | wind direction | speed knots | gust knots | rain 1hr in | rain 24hr in | rain mn in | humidity % | barometer mb |
| 20260504050504 | 66 | 18 | 4.3 | 12.2 | 0.00 | 0.00 | 0.00 | 59 | 1008.7 |
| 20260504050001 | 66 | 338 | 4.3 | 12.2 | 0.00 | 0.00 | 0.00 | 59 | 1008.7 |
| 20260504045601 | 65 | 329 | 5.2 | 12.2 | 0.00 | 0.00 | 0.00 | 59 | 1008.6 |
| 20260504045100 | 65 | 334 | 6.1 | 13.0 | 0.00 | 0.00 | 0.00 | 60 | 1008.7 |
| 20260504044600 | 65 | 355 | 6.1 | 13.0 | 0.00 | 0.00 | 0.00 | 60 | 1008.6 |
| 20260504044100 | 65 | 29 | 3.5 | 13.9 | 0.00 | 0.00 | 0.00 | 60 | 1008.7 |
| 20260504043700 | 65 | 11 | 6.1 | 13.9 | 0.00 | 0.00 | 0.00 | 60 | 1008.5 |
| 20260504043101 | 65 | 314 | 7.0 | 14.8 | 0.00 | 0.00 | 0.00 | 59 | 1008.6 |
| 20260504042558 | 65 | 360 | 7.0 | 14.8 | 0.00 | 0.00 | 0.00 | 59 | 1008.5 |
| 20260504042058 | 65 | 311 | 5.2 | 14.8 | 0.00 | 0.00 | 0.00 | 59 | 1008.3 |
| 20260504041557 | 65 | 321 | 7.0 | 13.0 | 0.00 | 0.00 | 0.00 | 59 | 1008.4 |
| 20260504041057 | 65 | 311 | 2.6 | 9.6 | 0.00 | 0.00 | 0.00 | 60 | 1008.4 |
| 20260504040557 | 64 | 355 | 3.5 | 10.4 | 0.00 | 0.00 | 0.00 | 60 | 1008.3 |
| 20260504040104 | 64 | 5 | 3.5 | 12.2 | 0.00 | 0.00 | 0.00 | 60 | 1008.4 |
| 20260504035556 | 64 | 312 | 5.2 | 13.9 | 0.00 | 0.00 | 0.00 | 59 | 1008.6 |
| 20260504035059 | 65 | 316 | 7.0 | 13.9 | 0.00 | 0.00 | 0.00 | 58 | 1008.5 |
| 20260504034556 | 65 | 11 | 3.5 | 13.9 | 0.00 | 0.00 | 0.00 | 59 | 1008.4 |
| 20260504034056 | 65 | 315 | 3.5 | 12.2 | 0.00 | 0.00 | 0.00 | 59 | 1008.5 |
| 20260504033656 | 65 | 54 | 7.0 | 13.0 | 0.00 | 0.00 | 0.00 | 59 | 1008.6 |
| 20260504033057 | 64 | 34 | 2.6 | 13.0 | 0.00 | 0.00 | 0.00 | 60 | 1008.6 |
| 20260504032553 | 64 | 43 | 3.5 | 12.2 | 0.00 | 0.00 | 0.00 | 59 | 1008.6 |
| 20260504032051 | 64 | 320 | 5.2 | 10.4 | 0.00 | 0.00 | 0.00 | 59 | 1008.6 |
| 20260504031617 | 64 | 319 | 5.2 | 11.3 | 0.00 | 0.00 | 0.00 | 60 | 1008.7 |
| 20260504031050 | 64 | 313 | 3.5 | 12.2 | 0.00 | 0.00 | 0.00 | 60 | 1008.7 |
| 20260504030550 | 64 | 53 | 6.1 | 12.2 | 0.00 | 0.00 | 0.00 | 59 | 1008.8 |
| 20260504030050 | 64 | 330 | 4.3 | 13.9 | 0.00 | 0.00 | 0.00 | 59 | 1008.9 |
| 20260504025549 | 64 | 344 | 6.1 | 12.2 | 0.00 | 0.00 | 0.00 | 59 | 1009.0 |
| 20260504025051 | 64 | 360 | 6.1 | 13.0 | 0.00 | 0.00 | 0.00 | 59 | 1009.1 |
| 20260504024548 | 64 | 319 | 6.1 | 14.8 | 0.00 | 0.00 | 0.00 | 59 | 1009.2 |
| 20260504024047 | 64 | 340 | 7.0 | 15.6 | 0.00 | 0.00 | 0.00 | 59 | 1009.3 |
| 20260504023648 | 64 | 5 | 4.3 | 13.9 | 0.00 | 0.00 | 0.00 | 59 | 1009.3 |
| 20260504023046 | 64 | 24 | 4.3 | 12.2 | 0.00 | 0.00 | 0.00 | 59 | 1009.5 |
| 20260504022547 | 64 | 323 | 6.1 | 13.9 | 0.00 | 0.00 | 0.00 | 60 | 1009.6 |
| 20260504022043 | 63 | 355 | 6.1 | 13.9 | 0.00 | 0.00 | 0.00 | 60 | 1009.7 |
| 20260504021541 | 63 | 27 | 6.1 | 13.9 | 0.00 | 0.00 | 0.00 | 59 | 1009.9 |
| 20260504021043 | 64 | 336 | 6.1 | 13.9 | 0.00 | 0.00 | 0.00 | 59 | 1010.0 |
| 20260504020542 | 64 | 325 | 7.8 | 13.9 | 0.00 | 0.00 | 0.00 | 58 | 1009.9 |
| 20260504020042 | 64 | 308 | 3.5 | 12.2 | 0.00 | 0.00 | 0.00 | 58 | 1010.0 |
| 20260504015541 | 64 | 342 | 6.1 | 18.2 | 0.00 | 0.00 | 0.00 | 57 | 1009.9 |
| 20260504015041 | 65 | 319 | 7.8 | 18.2 | 0.00 | 0.00 | 0.00 | 56 | 1010.1 |
| 20260504014540 | 64 | 330 | 5.2 | 13.0 | 0.00 | 0.00 | 0.00 | 56 | 1010.0 |
| 20260504014040 | 64 | 290 | 5.2 | 15.6 | 0.00 | 0.00 | 0.00 | 56 | 1009.9 |
| 20260504013640 | 64 | 296 | 7.8 | 15.6 | 0.00 | 0.00 | 0.00 | 56 | 1010.1 |
| 20260504013037 | 64 | 355 | 6.1 | 13.0 | 0.00 | 0.00 | 0.00 | 56 | 1010.1 |
| 20260504012535 | 64 | 55 | 3.5 | 13.9 | 0.00 | 0.00 | 0.00 | 57 | 1010.1 |
| 20260504012035 | 64 | 327 | 6.1 | 13.9 | 0.00 | 0.00 | 0.00 | 56 | 1010.3 |
| 20260504011533 | 63 | 348 | 5.2 | 13.0 | 0.00 | 0.00 | 0.00 | 57 | 1010.3 |
| 20260504011032 | 63 | 24 | 5.2 | 11.3 | 0.00 | 0.00 | 0.00 | 57 | 1010.3 |
| 20260504010535 | 63 | 45 | 3.5 | 13.9 | 0.00 | 0.00 | 0.00 | 58 | 1010.3 |
| 20260504010031 | 63 | 313 | 7.0 | 13.9 | 0.00 | 0.02 | 0.00 | 58 | 1010.2 |
| 20260504005530 | 63 | 310 | 4.3 | 13.9 | 0.00 | 0.02 | 0.00 | 59 | 1010.3 |
| 20260504005029 | 62 | 51 | 7.0 | 15.6 | 0.00 | 0.02 | 0.00 | 58 | 1010.3 |
| 20260504004530 | 62 | 311 | 7.0 | 15.6 | 0.00 | 0.02 | 0.00 | 60 | 1010.3 |
| 20260504004028 | 62 | 346 | 3.5 | 12.2 | 0.00 | 0.02 | 0.00 | 60 | 1010.3 |
| 20260504003628 | 62 | 344 | 7.0 | 14.8 | 0.00 | 0.02 | 0.00 | 60 | 1010.3 |
| 20260504003028 | 62 | 329 | 7.0 | 14.8 | 0.00 | 0.02 | 0.00 | 61 | 1010.3 |
| 20260504002526 | 61 | 9 | 2.6 | 12.2 | 0.00 | 0.02 | 0.00 | 62 | 1010.2 |
| 20260504002125 | 61 | 280 | 5.2 | 14.8 | 0.00 | 0.02 | 0.00 | 62 | 1010.3 |
| 20260504001525 | 61 | 11 | 7.8 | 14.8 | 0.00 | 0.02 | 0.00 | 62 | 1010.4 |
| 20260504001124 | 61 | 315 | 5.2 | 11.3 | 0.00 | 0.02 | 0.00 | 63 | 1010.4 |
| 20260504000522 | 61 | 336 | 4.3 | 13.0 | 0.00 | 0.02 | 0.00 | 65 | 1010.4 |
| 20260504000023 | 60 | 333 | 6.1 | 13.0 | 0.00 | 0.05 | 0.00 | 64 | 1010.4 |
| 20260503235520 | 60 | 42 | 5.2 | 11.3 | 0.00 | 0.05 | 0.00 | 65 | 1010.4 |
| 20260503235019 | 60 | 360 | 3.5 | 10.4 | 0.00 | 0.05 | 0.00 | 66 | 1010.4 |
| 20260503234522 | 60 | 315 | 2.6 | 13.9 | 0.00 | 0.05 | 0.00 | 66 | 1010.4 |
| 20260503234017 | 60 | 14 | 4.3 | 12.2 | 0.00 | 0.05 | 0.00 | 66 | 1010.5 |
| 20260503233616 | 60 | 330 | 6.1 | 12.2 | 0.00 | 0.05 | 0.00 | 67 | 1010.5 |
| 20260503233013 | 59 | 311 | 7.0 | 12.2 | 0.00 | 0.05 | 0.00 | 67 | 1010.6 |
| 20260503232515 | 59 | 40 | 4.3 | 13.9 | 0.00 | 0.05 | 0.00 | 67 | 1010.6 |
| 20260503232011 | 59 | 301 | 6.1 | 13.9 | 0.00 | 0.05 | 0.00 | 69 | 1010.7 |
| 20260503231516 | 59 | 18 | 4.3 | 11.3 | 0.00 | 0.05 | 0.00 | 71 | 1010.6 |
| 20260503231111 | 59 | 318 | 5.2 | 11.3 | 0.00 | 0.05 | 0.00 | 71 | 1010.6 |
| 20260503230507 | 58 | 350 | 3.5 | 8.7 | 0.00 | 0.05 | 0.00 | 72 | 1010.6 |
| 20260503230006 | 58 | 350 | 2.6 | 8.7 | 0.00 | 0.06 | 0.00 | 73 | 1010.7 |
| 20260503225504 | 58 | 325 | 2.6 | 8.7 | 0.00 | 0.06 | 0.00 | 74 | 1010.6 |
| 20260503225007 | 57 | 17 | 3.5 | 8.7 | 0.00 | 0.06 | 0.00 | 75 | 1010.6 |
| 20260503224502 | 57 | 360 | 2.6 | 7.8 | 0.00 | 0.06 | 0.00 | 76 | 1010.6 |
| 20260503224101 | 56 | 29 | 3.5 | 8.7 | 0.00 | 0.06 | 0.00 | 77 | 1010.7 |
| 20260503223559 | 56 | 45 | 3.5 | 7.8 | 0.00 | 0.06 | 0.00 | 78 | 1010.7 |
| 20260503223058 | 55 | 5 | 2.6 | 7.8 | 0.00 | 0.06 | 0.00 | 79 | 1010.7 |
| 20260503222556 | 55 | 13 | 2.6 | 7.8 | 0.00 | 0.06 | 0.00 | 80 | 1010.8 |
| 20260503222054 | 54 | 5 | 2.6 | 7.8 | 0.00 | 0.06 | 0.00 | 80 | 1010.9 |
| 20260503221553 | 54 | 25 | 2.6 | 7.8 | 0.00 | 0.06 | 0.00 | 81 | 1010.8 |
| 20260503221052 | 54 | 355 | 2.6 | 7.8 | 0.00 | 0.06 | 0.00 | 81 | 1010.7 |
| 20260503220551 | 53 | 10 | 3.5 | 8.7 | 0.00 | 0.06 | 0.00 | 81 | 1010.7 |
| 20260503220050 | 53 | 336 | 3.5 | 8.7 | 0.00 | 0.06 | 0.00 | 82 | 1010.7 |
| 20260503215549 | 53 | 18 | 3.5 | 7.8 | 0.00 | 0.06 | 0.00 | 82 | 1010.7 |
| 20260503215049 | 52 | 349 | 2.6 | 7.8 | 0.00 | 0.06 | 0.00 | 82 | 1010.7 |
| 20260503214555 | 52 | 360 | 2.6 | 7.0 | 0.00 | 0.06 | 0.00 | 82 | 1010.7 |
| 20260503214050 | 52 | 11 | 1.7 | 4.3 | 0.00 | 0.06 | 0.00 | 81 | 1010.7 |
| 20260503213546 | 52 | 20 | 0.9 | 3.5 | 0.00 | 0.06 | 0.00 | 81 | 1010.8 |
| 20260503213112 | 52 | 355 | 0.9 | 3.5 | 0.00 | 0.06 | 0.00 | 81 | 1010.8 |
| 20260503212546 | 51 | 22 | 1.7 | 4.3 | 0.00 | 0.06 | 0.00 | 81 | 1010.7 |
| 20260503212047 | 51 | 329 | 1.7 | 4.3 | 0.00 | 0.06 | 0.00 | 81 | 1010.8 |
| 20260503211610 | 51 | 280 | 0.9 | 3.5 | 0.00 | 0.06 | 0.00 | 81 | 1010.6 |
| 20260503211047 | 51 | 329 | 0.9 | 3.5 | 0.00 | 0.06 | 0.00 | 81 | 1010.4 |
| 20260503210543 | 51 | 355 | 0.9 | 2.6 | 0.00 | 0.06 | 0.00 | 81 | 1010.3 |
| 20260503210043 | 51 | 351 | 0.0 | 3.5 | 0.00 | 0.06 | 0.00 | 80 | 1010.3 |
| 20260503205543 | 51 | 5 | 0.0 | 3.5 | 0.00 | 0.09 | 0.00 | 80 | 1010.3 |
| 20260503205045 | 52 | 9 | 0.0 | 3.5 | 0.00 | 0.09 | 0.00 | 80 | 1010.2 |
| 20260503204559 | 52 | 360 | 1.7 | 3.5 | 0.00 | 0.09 | 0.00 | 80 | 1010.3 |
| 20260503204042 | 52 | 355 | 0.9 | 2.6 | 0.00 | 0.09 | 0.00 | 80 | 1010.3 |
| 20260503203541 | 52 | 343 | 0.9 | 2.6 | 0.00 | 0.09 | 0.00 | 80 | 1010.4 |
| 20260503203041 | 52 | 5 | 0.9 | 3.5 | 0.00 | 0.09 | 0.00 | 80 | 1010.3 |
| 20260503202540 | 52 | 5 | 0.9 | 3.5 | 0.00 | 0.09 | 0.00 | 80 | 1010.2 |
| 20260503202044 | 52 | 5 | 0.9 | 2.6 | 0.00 | 0.09 | 0.00 | 80 | 1010.3 |
| 20260503201540 | 52 | 348 | 0.9 | 2.6 | 0.00 | 0.09 | 0.00 | 80 | 1010.4 |
| 20260503201039 | 52 | 327 | 0.0 | 2.6 | 0.00 | 0.09 | 0.00 | 80 | 1010.4 |
| 20260503200539 | 52 | 344 | 0.0 | 2.6 | 0.00 | 0.09 | 0.00 | 80 | 1010.4 |
| 20260503200039 | 52 | 337 | 0.9 | 3.5 | 0.00 | 0.09 | 0.00 | 80 | 1010.4 |
| 20260503195538 | 52 | 339 | 0.9 | 3.5 | 0.00 | 0.13 | 0.00 | 80 | 1010.4 |
| 20260503195038 | 53 | 355 | 0.9 | 2.6 | 0.00 | 0.13 | 0.00 | 80 | 1010.2 |
| 20260503194540 | 53 | 346 | 0.0 | 2.6 | 0.00 | 0.13 | 0.00 | 80 | 1010.2 |
| 20260503194038 | 53 | 346 | 0.0 | 2.6 | 0.00 | 0.13 | 0.00 | 80 | 1010.2 |
| 20260503193539 | 53 | 341 | 0.9 | 2.6 | 0.00 | 0.13 | 0.00 | 80 | 1010.2 |
| 20260503193040 | 53 | 341 | 0.0 | 2.6 | 0.00 | 0.13 | 0.00 | 80 | 1010.2 |
| 20260503192537 | 53 | 9 | 0.0 | 3.5 | 0.00 | 0.13 | 0.00 | 80 | 1010.2 |
| 20260503192037 | 53 | 21 | 1.7 | 3.5 | 0.00 | 0.13 | 0.00 | 80 | 1010.2 |
| 20260503191553 | 53 | 5 | 0.9 | 2.6 | 0.00 | 0.13 | 0.00 | 80 | 1010.4 |
| 20260503191036 | 53 | 5 | 0.0 | 2.6 | 0.00 | 0.13 | 0.00 | 80 | 1010.4 |
| 20260503190535 | 53 | 360 | 0.0 | 2.6 | 0.00 | 0.13 | 0.00 | 79 | 1010.5 |
| 20260503190037 | 53 | 355 | 0.0 | 2.6 | 0.00 | 0.13 | 0.00 | 79 | 1010.6 |
| 20260503185537 | 53 | 331 | 0.9 | 3.5 | 0.00 | 0.13 | 0.00 | 79 | 1010.6 |
| 20260503185037 | 53 | 333 | 0.0 | 1.7 | 0.00 | 0.13 | 0.00 | 79 | 1010.5 |
| 20260503184535 | 53 | 15 | 0.9 | 2.6 | 0.00 | 0.13 | 0.00 | 79 | 1010.6 |
| 20260503184036 | 53 | 340 | 0.9 | 7.0 | 0.00 | 0.13 | 0.00 | 79 | 1010.6 |
| 20260503183533 | 53 | 340 | 1.7 | 7.0 | 0.00 | 0.13 | 0.00 | 79 | 1010.6 |
| 20260503183041 | 53 | 340 | 0.9 | 3.5 | 0.00 | 0.13 | 0.00 | 80 | 1010.6 |
| 20260503182532 | 53 | 14 | 0.9 | 3.5 | 0.00 | 0.13 | 0.00 | 80 | 1010.6 |
| 20260503182030 | 53 | 348 | 0.9 | 4.3 | 0.00 | 0.13 | 0.00 | 80 | 1010.8 |
| 20260503181530 | 53 | 348 | 1.7 | 5.2 | 0.00 | 0.13 | 0.00 | 80 | 1010.7 |
| 20260503181029 | 53 | 24 | 1.7 | 5.2 | 0.00 | 0.13 | 0.00 | 80 | 1010.8 |
| 20260503180528 | 53 | 325 | 1.7 | 7.0 | 0.00 | 0.13 | 0.00 | 80 | 1010.8 |
| 20260503180033 | 53 | 331 | 3.5 | 7.0 | 0.00 | 0.13 | 0.00 | 81 | 1010.8 |
| 20260503175527 | 52 | 337 | 2.6 | 7.0 | 0.00 | 0.13 | 0.00 | 81 | 1010.8 |
| 20260503175027 | 52 | 331 | 3.5 | 7.0 | 0.00 | 0.13 | 0.00 | 81 | 1010.8 |
| 20260503174536 | 51 | 21 | 3.5 | 7.8 | 0.00 | 0.13 | 0.00 | 81 | 1010.8 |
| 20260503174026 | 51 | 355 | 3.5 | 7.8 | 0.00 | 0.13 | 0.00 | 81 | 1010.8 |
| 20260503173526 | 51 | 336 | 2.6 | 5.2 | 0.00 | 0.13 | 0.00 | 81 | 1010.8 |
| 20260503173025 | 51 | 316 | 1.7 | 4.3 | 0.00 | 0.13 | 0.00 | 81 | 1010.8 |
| 20260503172523 | 51 | 336 | 0.9 | 3.5 | 0.00 | 0.13 | 0.00 | 80 | 1010.9 |
| 20260503172023 | 51 | 30 | 0.9 | 2.6 | 0.00 | 0.13 | 0.00 | 80 | 1010.9 |
| 20260503171528 | 51 | 26 | 0.0 | 1.7 | 0.00 | 0.13 | 0.00 | 80 | 1011.0 |
| 20260503171024 | 51 | 26 | 0.0 | 2.6 | 0.00 | 0.13 | 0.00 | 80 | 1011.0 |
| 20260503170522 | 51 | 24 | 0.9 | 2.6 | 0.00 | 0.13 | 0.00 | 80 | 1011.1 |
| 20260503151010 | 52 | 20 | 1.7 | 7.0 | 0.00 | 0.13 | 0.00 | 81 | 1011.3 |
| 20260503150511 | 52 | 16 | 0.9 | 3.5 | 0.00 | 0.13 | 0.00 | 81 | 1011.3 |
| 20260503131054 | 54 | 325 | 0.0 | 2.6 | 0.00 | 0.13 | 0.13 | 83 | 1011.9 |
| 20260503130555 | 54 | 325 | 0.0 | 2.6 | 0.00 | 0.13 | 0.13 | 84 | 1011.9 |
| 20260503120151 | 54 | 355 | 0.0 | 1.7 | 0.00 | 0.13 | 0.13 | 81 | 1012.4 |
| 20260503110543 | 55 | 355 | 0.0 | 0.9 | 0.00 | 0.13 | 0.13 | 78 | 1012.0 |
| 20260503110144 | 55 | 355 | 0.0 | 1.7 | 0.00 | 0.13 | 0.13 | 77 | 1012.1 |
| 20260503081536 | 61 | 20 | 0.0 | 1.7 | 0.00 | 0.13 | 0.13 | 65 | 1010.4 |
| 20260503081021 | 61 | 20 | 0.0 | 2.6 | 0.00 | 0.13 | 0.13 | 65 | 1010.4 |
| 20260503080521 | 62 | 20 | 0.0 | 4.3 | 0.00 | 0.13 | 0.13 | 65 | 1010.4 |
| 20260503072525 | 64 | 317 | 1.7 | 7.8 | 0.00 | 0.13 | 0.13 | 60 | 1010.4 |
| 20260503072022 | 64 | 344 | 1.7 | 6.1 | 0.00 | 0.13 | 0.13 | 59 | 1010.4 |
| 20260503071535 | 65 | 348 | 2.6 | 6.1 | 0.00 | 0.13 | 0.13 | 58 | 1010.3 |
| 20260503071021 | 65 | 329 | 1.7 | 5.2 | 0.00 | 0.13 | 0.13 | 58 | 1010.1 |
| 20260503070525 | 65 | 325 | 0.9 | 6.1 | 0.00 | 0.13 | 0.13 | 57 | 1010.1 |
| 20260503055018 | 67 | 298 | 3.5 | 12.2 | 0.00 | 0.13 | 0.13 | 53 | 1010.3 |
| 20260503054530 | 67 | 355 | 6.1 | 12.2 | 0.00 | 0.13 | 0.13 | 53 | 1010.3 |
| 20260503054021 | 67 | 309 | 4.3 | 9.6 | 0.00 | 0.13 | 0.13 | 53 | 1010.3 |
| 20260503053520 | 67 | 267 | 4.3 | 10.4 | 0.00 | 0.13 | 0.13 | 54 | 1010.4 |
| 20260503053015 | 67 | 265 | 3.5 | 13.9 | 0.00 | 0.13 | 0.13 | 53 | 1010.2 |
| 20260503052516 | 67 | 270 | 6.1 | 13.9 | 0.00 | 0.13 | 0.13 | 52 | 1010.2 |
| 20260503052016 | 67 | 275 | 7.8 | 13.9 | 0.00 | 0.13 | 0.13 | 51 | 1010.2 |